logo
Search for airport 
image banner adimage banner adimage banner ad
image banner ad

LKKB - Kbely

Located in Kbely, Czech Republic

ICAO - LKKB, IATA -

Data provided by Airmate  

General information

Coordinates: N50°7'17" E14°32'37"
Elevation is 939 feet MSL.
Magnetic variation is 4° East
View others Airports in Prague (capital city)

Operational data

Special qualification required
Current time UTC:
Current local time:
Weather
METAR: LKKB 282000Z 07003KT 9999 FEW028 SCT080 14/11 Q1019 NOSIG
TAF: TAF LKKB 281700Z 2818/2918 26005KT 9999 SCT030 BECMG 2822/2900 21004KT CAVOK TEMPO 2900/2906 4000 MIFG BR SCT010 PROB40 TEMPO 2901/2906 0500 FG VV002 TEMPO 2906/2909 SCT015
View NOTAMs / SUP AIP / TFR affecting this airport [VIEW]
Communications frequencies: [VIEW]

Runways:

RWY identifierQFULength (ft)Width (ft)SurfaceLDA (ft)
0662°6562161ASP
24242°6562161ASP

Airport contact information

Address: Kbely Czech Republic

Other aviation service providers

Flight schools

A-Prim-Air, S.R.O.

A-Prim-Air, S.R.O.
+420286028230

Aerotaxi

Aerotaxi
+420602220670

Blue Sky Aviation S.R.O.

Blue Sky Aviation S.R.O.

M-Air Academy S.R.O.

M-Air Academy S.R.O.
pilot@flymair.com+420776737019
+420777421787

Mavisys S. R. O.

Mavisys S. R. O.

Aviation club (not for profit)

Aeroklub Praha - Letňany

Aeroklub Praha - Letňany
posta@akletnany.cz+420732175696
Rated:
View ratings:
[VIEW]

Satellite view of LKKB